• In Österreich
  • Länderverzeichnis
  • Für 7 Tage
  • Wassertemperatur
  • Satellitenkarten
  • Wetterkarte
  • News
  • Widgets
  • user-avatar
    Anmelden

    Stündliche Wetter Sivrihisar

    Heute, 19 Juli, Donnerstag

    Zeit Temperatur Niederschläge Wind Luftdruck Luftfeuchtigkeit
    00:00 +20°C° 0 mm 2 m/S 662 mmHg 66%
    01:00 +19°C° 0 mm 2 m/S 661 mmHg 68%
    02:00 +19°C° 0 mm 2 m/S 661 mmHg 71%
    03:00 +18°C° 0 mm 2 m/S 661 mmHg 73%
    04:00 +18°C° 0 mm 2 m/S 661 mmHg 74%
    05:00 +17°C° 0 mm 2 m/S 661 mmHg 76%
    06:00 +18°C° 0 mm 3 m/S 662 mmHg 68%
    07:00 +20°C° 0 mm 3 m/S 662 mmHg 60%
    08:00 +21°C° 0 mm 3 m/S 662 mmHg 52%
    09:00 +22°C° 0 mm 3 m/S 662 mmHg 46%
    10:00 +25°C° 0 mm 4 m/S 663 mmHg 41%
    11:00 +26°C° 0 mm 4 m/S 663 mmHg 36%
    12:00 +26°C° 0 mm 4 m/S 663 mmHg 34%
    13:00 +27°C° 0 mm 5 m/S 663 mmHg 33%
    14:00 +27°C° 0 mm 6 m/S 663 mmHg 32%
    15:00 +27°C° 0 mm 6 m/S 663 mmHg 34%
    16:00 +27°C° 0 mm 6 m/S 663 mmHg 36%
    17:00 +26°C° 0 mm 6 m/S 662 mmHg 38%
    18:00 +24°C° 0 mm 6 m/S 662 mmHg 43%
    19:00 +23°C° 0 mm 5 m/S 662 mmHg 48%
    20:00 +21°C° 0 mm 5 m/S 662 mmHg 53%
    21:00 +21°C° 0 mm 4 m/S 662 mmHg 57%
    22:00 +20°C° 0 mm 4 m/S 663 mmHg 61%
    23:00 +19°C° 0 mm 3 m/S 663 mmHg 65%

    Morgen, 20 Juli, Freitag

    Zeit Temperatur Niederschläge Wind Luftdruck Luftfeuchtigkeit
    00:00 +19°C° 0 mm 3 m/S 663 mmHg 67%
    01:00 +18°C° 0 mm 2 m/S 663 mmHg 70%
    02:00 +17°C° 0 mm 2 m/S 662 mmHg 73%
    03:00 +17°C° 0 mm 2 m/S 662 mmHg 75%
    04:00 +17°C° 0 mm 2 m/S 662 mmHg 77%
    05:00 +16°C° 0 mm 2 m/S 662 mmHg 79%
    06:00 +17°C° 0 mm 2 m/S 663 mmHg 72%
    07:00 +18°C° 0 mm 2 m/S 663 mmHg 65%
    08:00 +20°C° 0 mm 3 m/S 663 mmHg 58%
    09:00 +21°C° 0 mm 3 m/S 664 mmHg 53%
    10:00 +22°C° 0 mm 3 m/S 664 mmHg 47%
    11:00 +25°C° 0 mm 3 m/S 664 mmHg 41%
    12:00 +26°C° 0 mm 3 m/S 664 mmHg 38%
    13:00 +27°C° 0 mm 3 m/S 664 mmHg 36%
    14:00 +27°C° 0 mm 3 m/S 664 mmHg 33%
    15:00 +27°C° 0 mm 4 m/S 664 mmHg 35%
    16:00 +27°C° 0 mm 5 m/S 664 mmHg 36%
    17:00 +27°C° 0 mm 5 m/S 664 mmHg 38%
    18:00 +26°C° 0 mm 5 m/S 664 mmHg 43%
    19:00 +25°C° 0 mm 5 m/S 664 mmHg 47%
    20:00 +23°C° 0 mm 4 m/S 664 mmHg 52%
    21:00 +22°C° 0 mm 4 m/S 664 mmHg 56%
    22:00 +21°C° 0 mm 3 m/S 664 mmHg 61%
    23:00 +20°C° 0 mm 3 m/S 664 mmHg 65%

    übermorgen, 21 Juli, Samstag

    Zeit Temperatur Niederschläge Wind Luftdruck Luftfeuchtigkeit
    00:00 +20°C° 0 mm 3 m/S 664 mmHg 68%
    01:00 +19°C° 0 mm 2 m/S 664 mmHg 72%
    02:00 +18°C° 0 mm 2 m/S 664 mmHg 76%
    03:00 +18°C° 0 mm 2 m/S 664 mmHg 78%
    04:00 +17°C° 0 mm 2 m/S 664 mmHg 81%
    05:00 +17°C° 0 mm 2 m/S 664 mmHg 83%
    06:00 +18°C° 0 mm 2 m/S 664 mmHg 75%
    07:00 +19°C° 0 mm 2 m/S 665 mmHg 67%
    08:00 +21°C° 0 mm 2 m/S 665 mmHg 59%
    09:00 +23°C° 0 mm 2 m/S 665 mmHg 51%
    10:00 +25°C° 0 mm 2 m/S 666 mmHg 44%
    11:00 +26°C° 0 mm 1 m/S 666 mmHg 36%
    12:00 +27°C° 0 mm 2 m/S 666 mmHg 33%
    13:00 +28°C° 0 mm 2 m/S 666 mmHg 30%
    14:00 +29°C° 0 mm 2 m/S 666 mmHg 27%
    15:00 +30°C° 0 mm 3 m/S 666 mmHg 27%
    16:00 +30°C° 0 mm 3 m/S 666 mmHg 27%
    17:00 +30°C° 0 mm 4 m/S 666 mmHg 27%
    18:00 +29°C° 0 mm 4 m/S 666 mmHg 33%
    19:00 +27°C° 0 mm 4 m/S 665 mmHg 38%
    20:00 +26°C° 0 mm 4 m/S 665 mmHg 44%
    21:00 +25°C° 0 mm 4 m/S 665 mmHg 49%
    22:00 +24°C° 0 mm 3 m/S 665 mmHg 54%
    23:00 +22°C° 0 mm 3 m/S 665 mmHg 59%

    22 Juli, Sonntag

    Zeit Temperatur Niederschläge Wind Luftdruck Luftfeuchtigkeit
    00:00 +22°C° 0 mm 3 m/S 665 mmHg 63%
    01:00 +21°C° 0 mm 2 m/S 665 mmHg 66%
    02:00 +20°C° 0 mm 2 m/S 665 mmHg 69%
    03:00 +20°C° 0 mm 2 m/S 664 mmHg 71%
    04:00 +19°C° 0 mm 2 m/S 664 mmHg 73%
    05:00 +19°C° 0 mm 2 m/S 664 mmHg 75%
    06:00 +20°C° 0 mm 2 m/S 665 mmHg 68%
    07:00 +21°C° 0 mm 2 m/S 665 mmHg 62%
    08:00 +23°C° 0 mm 2 m/S 665 mmHg 55%
    09:00 +25°C° 0 mm 2 m/S 665 mmHg 49%
    10:00 +26°C° 0 mm 2 m/S 665 mmHg 43%
    11:00 +27°C° 0 mm 2 m/S 665 mmHg 37%
    12:00 +28°C° 0 mm 3 m/S 665 mmHg 34%
    13:00 +29°C° 0 mm 4 m/S 665 mmHg 31%
    14:00 +30°C° 0 mm 4 m/S 665 mmHg 27%
    15:00 +30°C° 0 mm 5 m/S 665 mmHg 28%
    16:00 +29°C° 0 mm 6 m/S 665 mmHg 30%
    17:00 +29°C° 0 mm 6 m/S 664 mmHg 31%
    18:00 +28°C° 0 mm 6 m/S 664 mmHg 36%
    19:00 +26°C° 0 mm 5 m/S 664 mmHg 41%
    20:00 +25°C° 0 mm 5 m/S 664 mmHg 47%
    21:00 +23°C° 0 mm 4 m/S 664 mmHg 51%
    22:00 +22°C° 0 mm 3 m/S 664 mmHg 56%
    23:00 +21°C° 0 mm 3 m/S 664 mmHg 60%

    23 Juli, Montag

    Zeit Temperatur Niederschläge Wind Luftdruck Luftfeuchtigkeit
    00:00 +21°C° 0 mm 3 m/S 664 mmHg 64%
    01:00 +20°C° 0 mm 2 m/S 663 mmHg 67%
    02:00 +19°C° 0 mm 2 m/S 663 mmHg 70%
    03:00 +19°C° 0 mm 2 m/S 663 mmHg 73%
    04:00 +19°C° 0 mm 1 m/S 663 mmHg 76%
    05:00 +19°C° 0 mm 1 m/S 663 mmHg 78%
    06:00 +20°C° 0 mm 1 m/S 663 mmHg 70%
    07:00 +22°C° 0 mm 1 m/S 663 mmHg 61%
    08:00 +23°C° 0 mm 1 m/S 663 mmHg 53%
    09:00 +25°C° 0 mm 1 m/S 663 mmHg 45%
    10:00 +26°C° 0 mm 1 m/S 663 mmHg 37%
    11:00 +28°C° 0 mm 1 m/S 663 mmHg 30%
    12:00 +29°C° 0 mm 1 m/S 663 mmHg 26%
    13:00 +30°C° 0 mm 2 m/S 663 mmHg 23%
    14:00 +31°C° 0 mm 2 m/S 663 mmHg 20%
    15:00 +31°C° 0 mm 2 m/S 663 mmHg 19%
    16:00 +31°C° 0 mm 2 m/S 662 mmHg 19%
    17:00 +32°C° 0 mm 2 m/S 662 mmHg 18%
    18:00 +30°C° 0 mm 2 m/S 662 mmHg 21%
    19:00 +29°C° 0 mm 2 m/S 662 mmHg 23%
    20:00 +28°C° 0 mm 2 m/S 662 mmHg 26%
    21:00 +27°C° 0,1 mm 2 m/S 662 mmHg 29%
    22:00 +26°C° 0,1 mm 2 m/S 662 mmHg 32%
    23:00 +25°C° 0,1 mm 2 m/S 662 mmHg 35%

    24 Juli, Dienstag

    Zeit Temperatur Niederschläge Wind Luftdruck Luftfeuchtigkeit
    00:00 +25°C° 0,1 mm 2 m/S 662 mmHg 37%
    01:00 +24°C° 0,1 mm 2 m/S 661 mmHg 40%
    02:00 +24°C° 0,1 mm 1 m/S 661 mmHg 42%
    03:00 +23°C° 0 mm 1 m/S 661 mmHg 44%
    04:00 +23°C° 0 mm 1 m/S 661 mmHg 47%
    05:00 +22°C° 0 mm 1 m/S 661 mmHg 49%
    06:00 +24°C° 0 mm 1 m/S 661 mmHg 44%
    07:00 +25°C° 0 mm 1 m/S 662 mmHg 39%
    08:00 +27°C° 0 mm 1 m/S 662 mmHg 34%
    09:00 +28°C° 0 mm 2 m/S 662 mmHg 30%
    10:00 +30°C° 0 mm 2 m/S 663 mmHg 26%
    11:00 +31°C° 0 mm 2 m/S 663 mmHg 22%
    12:00 +31°C° 0 mm 2 m/S 662 mmHg 22%
    13:00 +32°C° 0 mm 2 m/S 662 mmHg 21%
    14:00 +32°C° 0 mm 1 m/S 662 mmHg 21%
    15:00 +30°C° 0,5 mm 3 m/S 662 mmHg 27%
    16:00 +29°C° 0,5 mm 5 m/S 661 mmHg 33%
    17:00 +27°C° 0,5 mm 7 m/S 661 mmHg 38%
    18:00 +26°C° 0,3 mm 5 m/S 661 mmHg 43%
    19:00 +25°C° 0,3 mm 4 m/S 661 mmHg 48%
    20:00 +24°C° 0,3 mm 2 m/S 661 mmHg 53%
    21:00 +23°C° 0,2 mm 2 m/S 661 mmHg 55%
    22:00 +23°C° 0,2 mm 2 m/S 661 mmHg 58%
    23:00 +21°C° 0,2 mm 2 m/S 661 mmHg 60%
    Mehr zeigen